Location: Chris' Backyard Observatory
(47.3045°N, 122.2839°W)
Time: 01:53:10
(UTC-07:00)

Daily predictions for brighter satellites

Satellite Brightness Start Highest point End
(mag) Time Altitude Azimuth Time Altitude Azimuth Time Altitude Azimuth
Cosmos 2263 Rocket 2.1 00:02:09 19° SSW 00:06:16 87° WNW 00:11:55 10° NNE
Cosmos 1869 3.2 00:02:30 10° N 00:06:28 76° E 00:07:41 43° SSE
Cosmos 1891 Rocket 4.4 00:00:40 10° N 00:06:48 78° E 00:10:01 30° SSE
CZ-4B R/B 4.3 00:06:58 10° ENE 00:07:28 10° ENE 00:07:58 10° NE
Cosmos 841 Rocket 4.4 00:02:45 10° NW 00:07:35 38° WSW 00:10:09 23° SSW
Sich 1 3.2 00:07:15 38° SSE 00:08:36 57° E 00:12:49 10° NNE
CZ-4C R/B 3.2 00:08:02 24° SE 00:09:00 26° ESE 00:13:44 10° ENE
CZ-4C R/B 4.1 00:07:59 31° SSW 00:09:41 50° W 00:13:58 10° NNW
Cosmos 1707 Rocket 3.5 00:07:37 10° N 00:12:07 85° W 00:13:50 38° S
Cosmos 1400 Rocket 4.0 00:17:13 28° ESE 00:18:03 30° E 00:21:42 10° NNE
ATLAS 5 CENTAUR R/B 4.3 00:14:05 10° W 00:18:11 25° NNW 00:22:37 10° NNE
Cosmos 1455 3.3 00:18:04 10° NNW 00:21:38 35° W 00:22:56 27° SW
Cosmos 1464 Rocket 4.1 00:20:09 10° NNW 00:26:14 66° W 00:29:33 28° SSW
Cosmos 304 Rocket 4.4 00:22:15 10° NW 00:26:47 43° WSW 00:28:31 31° SSW
Cosmos 1666 Rocket 3.6 00:28:56 38° SSW 00:30:37 83° W 00:35:07 10° N
Cosmos 1862 Rocket 3.9 00:31:23 10° N 00:35:41 55° ENE 00:37:10 36° SE
Cosmos 1933 Rocket 4.0 00:39:00 37° SE 00:40:09 47° E 00:44:21 10° NNE
Cosmos 1844 Rocket 3.2 00:39:31 33° SSE 00:41:19 43° ESE 00:46:35 10° NE
Cosmos 1805 Rocket 4.4 00:40:18 25° SW 00:42:22 42° WNW 00:46:31 10° N
CZ-4C R/B 3.8 00:45:09 34° E 00:45:47 38° ENE 00:48:51 10° N
NOSS 3 (A) 4.4 00:47:07 87° WSW 00:47:10 89° NNW 00:50:33 10° NE
Lacrosse 5 3.9 00:45:29 10° W 00:47:40 13° WSW 00:47:59 13° WSW
Cosmos 1633 Rocket 3.2 00:47:58 37° SW 00:49:31 64° W 00:53:52 10° N
Cosmos 1892 3.9 00:51:23 28° ESE 00:52:05 30° E 00:55:31 10° NNE
In-Cosmos 22 Rocket 4.4 00:50:35 35° SSE 00:52:46 59° E 00:58:16 10° NNE
CZ-2C R/B 3.6 00:50:10 32° SSW 00:52:47 58° W 00:58:26 10° NNW
Tsikada Rocket 4.0 00:53:01 31° SSW 00:56:22 83° W 01:02:46 10° N
USA 234 4.4 00:50:31 10° NE 00:56:38 44° NNW 01:02:45 10° W
SL-27 R/B 4.1 00:55:15 10° N 00:58:07 26° ENE 00:59:18 21° E
Cosmos 2242 Rocket 4.0 00:56:19 10° NNW 01:00:50 56° W 01:02:16 38° SSW
Cosmos 1703 Rocket 4.3 01:02:31 10° N 01:06:52 46° ENE 01:08:36 30° SE
CZ-2C R/B 3.2 01:10:49 10° N 01:16:00 51° WNW 01:18:51 25° SW
Cosmos 968 Rocket 3.6 01:13:50 32° SW 01:16:18 75° WNW 01:21:36 10° NNE
Cosmos 1470 Rocket 3.8 01:16:12 39° SW 01:17:39 64° W 01:22:05 10° N
H-2A R/B 3.9 01:14:58 10° NNE 01:18:58 30° E 01:20:19 25° SE
Cosmos 2084 Rocket 3.4 01:20:45 10° NW 01:24:26 48° SW 01:24:32 48° SW
Cosmos 1933 4.2 01:23:13 10° NNW 01:27:03 38° W 01:27:55 34° WSW
Meteor 1-26 Rocket 4.2 01:21:41 10° NNW 01:27:13 72° W 01:29:32 36° S
Cosmos 2278 Rocket 2.8 01:27:04 31° SSE 01:29:08 43° ESE 01:34:28 10° NE
Cosmos 489 Rocket 4.5 01:27:10 33° S 01:30:15 76° ESE 01:36:38 10° NNE
Cosmos 1538 Rocket 4.4 01:26:53 10° NNW 01:32:05 52° WSW 01:33:57 35° SSW
Cosmos 1869 Rocket 4.1 01:31:28 36° SE 01:32:48 49° E 01:37:00 10° NNE
Cosmos 1689 Rocket 2.0 01:32:44 80° SE 01:32:52 85° E 01:36:01 10° NNW
Okean 1-7 3.4 01:29:07 10° N 01:33:23 58° ENE 01:35:02 34° SE
Cosmos 1844 3.6 01:31:39 34° SSW 01:34:11 83° ESE 01:39:49 10° NNE
Cosmos 1833 Rocket 3.9 01:29:09 10° NNW 01:34:26 38° NE 01:39:40 10° ESE
SL-24 R/B - RUBIN 2 4.3 01:30:35 10° NW 01:35:55 49° WSW 01:37:18 38° SSW
CZ-3B DEB 4.4 01:25:59 10° WNW 01:38:47 73° NNE 01:51:13 10° ESE
ALOS 2 4.2 01:37:50 19° WSW 01:38:53 21° W 01:42:14 10° NW
CZ-4B R/B 1.4 01:39:08 62° SSW 01:39:32 71° WSW 01:43:05 10° NNW
Cosmos 1461 3.8 01:39:59 30° SE 01:40:16 30° ESE 01:43:46 10° NE
Cosmos 923 Rocket 3.9 01:35:33 10° NNW 01:40:48 89° WSW 01:43:14 33° SSE
COSMOS 2406 3.9 01:36:07 10° NW 01:41:19 38° WSW 01:43:06 30° SW
Cosmos 1315 Rocket 3.2 01:46:12 39° SW 01:47:14 52° WNW 01:51:06 10° N
Cosmos 2279 Rocket 4.0 01:43:54 10° N 01:50:11 83° W 01:53:28 30° S
Landsat 5 3.6 01:49:33 43° SSW 01:50:41 59° WSW 01:54:49 10° NNW
Cosmos 2263 Rocket 4.5 01:47:07 10° W 01:51:03 19° NW 01:55:02 10° N
Meteor 1-10 Rocket 4.4 01:46:51 10° N 01:52:38 74° ENE 01:56:00 26° SSE
CZ-4C R/B 2.6 01:53:11 20° WSW 01:56:56 62° NW 02:03:07 10° NE
Cosmos 1825 2.9 01:56:02 34° SE 01:57:06 44° E 02:00:45 10° NNE
Cosmos 192 4.3 01:52:57 10° NNW 01:57:56 84° ENE 02:00:31 29° SSE
PSLV R/B 4.1 01:54:12 10° NNE 01:58:29 51° E 02:00:09 33° SSE
Cosmos 2082 Rocket 2.7 01:54:04 10° NNW 01:59:38 58° ENE 02:04:45 12° SE
Abrixas 2.8 02:00:17 49° ENE 02:00:17 49° ENE 02:02:25 10° ENE
Cosmos 1782 2.7 02:00:00 10° N 02:04:05 87° WSW 02:05:21 43° S
Meteor 2-3 Rocket 4.1 02:01:29 29° SW 02:04:25 60° WNW 02:10:11 10° N
Cosmos 1408 2.7 02:08:32 45° SSE 02:09:25 65° E 02:13:01 10° NNE
Cosmos 2112 Rocket 4.0 02:05:41 10° NNW 02:10:58 76° WSW 02:13:43 29° S
Cosmos 44 4.4 02:10:25 24° SE 02:11:48 28° ESE 02:15:39 10° ENE
Exosat Rocket 4.3 02:09:42 10° NNW 02:15:00 64° ENE 02:21:53 10° SE
BREEZE-M DEB (TANK) 4.0 02:02:31 10° W 02:15:34 79° S 02:19:35 10° ESE
ATLAS 3B R/B 3.8 02:15:40 20° SSE 02:19:47 34° ESE 02:26:08 10° NE
Cosmos 1346 Rocket 3.6 02:16:20 10° NNW 02:19:53 34° W 02:20:37 31° WSW
Meteor 2-6 Rocket 4.2 02:14:56 10° NNW 02:20:27 75° W 02:23:31 28° S
Meteor 1-27 Rocket 3.9 02:15:37 10° N 02:21:35 77° ENE 02:25:43 21° SSE
Cosmos 44 Rocket 3.9 02:19:53 29° SSE 02:21:43 42° ESE 02:26:13 10° NE
Helios 1A Rocket 3.5 02:17:59 10° NNE 02:22:01 49° E 02:23:43 30° SSE
Cosmos 1680 Rocket 3.8 02:18:38 10° NNW 02:23:44 52° WSW 02:26:01 30° SSW
PSLV R/B 4.2 02:21:52 26° SSE 02:24:07 68° ENE 02:28:17 10° N
Cosmos 1674 Rocket 4.3 02:20:35 10° N 02:24:56 50° ENE 02:27:55 19° SE
Cosmos 1844 Rocket 3.9 02:21:08 14° WSW 02:25:19 35° NW 02:30:26 10° NNE
Cosmos 1892 4.5 02:26:26 19° WSW 02:27:52 23° WNW 02:31:01 10° NNW
Timation 1 Rocket 4.3 02:26:12 28° SSW 02:29:34 90° WNW 02:35:36 10° NNE
Cosmos 1937 Rocket 4.3 02:30:03 22° SSE 02:32:54 41° ESE 02:37:44 10° NE
Timation 2 Rocket 4.2 02:26:57 10° NNW 02:32:59 69° ENE 02:39:11 10° SE
SL-27 R/B 4.0 02:30:40 10° NW 02:32:57 20° W 02:32:57 20° W
Aureole 1 Rocket 4.5 02:28:41 10° NNW 02:35:14 62° WSW 02:40:58 20° S
Resurs 1-4 Rocket 3.9 02:32:22 10° NE 02:36:36 23° E 02:40:47 10° SE
Cosmos 1606 3.7 02:41:37 10° NNW 02:45:07 33° W 02:46:08 28° WSW
Cosmos 1898 Rocket 3.6 02:43:27 26° S 02:46:22 73° ESE 02:51:38 10° NNE
Cosmos 1378 Rocket 4.4 02:42:22 10° N 02:46:33 46° ENE 02:50:20 12° SSE
SeaSat 1 2.4 02:45:36 18° SSE 02:49:13 69° WSW 02:54:10 10° NNW
Cosmos 1092 Rocket 4.0 02:46:12 23° S 02:50:24 90° E 02:56:42 10° N
Meteor 2-20 4.5 02:46:23 23° S 02:50:30 85° E 02:56:42 10° N
Cosmos 1340 2.6 02:47:21 10° NNW 02:51:08 73° W 02:52:52 30° S
CZ-2D R/B 3.5 02:47:42 10° NNE 02:52:28 31° E 02:57:14 10° SSE
H-2A R/B 3.8 02:50:25 10° N 02:54:29 33° WNW 02:56:56 19° WSW
Cosmos 1607 3.9 02:52:16 24° SSW 02:56:15 82° SE 03:02:34 10° NE
ARIANE 5 R/B 4.0 02:52:30 10° NE 02:56:50 29° E 03:01:09 10° SSE
Genesis I 3.8 02:55:59 22° WSW 02:58:11 49° NW 03:02:03 10° NNE
BREEZE-M DEB 2.7 02:57:05 10° W 03:00:58 56° N 03:03:03 10° ENE
SL-08 R/B 3.3 02:57:17 17° SSE 03:01:01 86° WSW 03:05:50 10° NNW
Cosmos 2026 Rocket 4.1 02:58:14 17° S 03:02:57 69° E 03:08:59 10° NNE
CBERS-1 4.1 02:59:20 10° NNE 03:04:29 73° ESE 03:08:06 20° S
COSMOS 2487 2.9 03:06:22 10° NW 03:09:45 42° WSW 03:11:07 28° SSW
USA 238 DEB 4.2 03:06:09 18° S 03:11:08 51° ESE 03:17:51 10° NE
USA 238 4.2 03:06:15 18° S 03:11:14 50° ESE 03:17:57 10° NE
Cosmos 2278 Rocket 3.3 03:08:54 14° WSW 03:13:19 36° NW 03:18:31 10° NNE
Cosmos 1437 3.8 03:12:15 10° N 03:15:23 43° ENE 03:18:29 10° SSE
IRS-P3 4.1 03:10:23 10° NNE 03:15:45 80° WNW 03:19:36 19° SSW
GP-B 3.1 03:12:00 10° N 03:16:26 70° W 03:19:22 21° SSW
NPP 3.7 03:12:56 10° NNE 03:18:21 82° WNW 03:22:20 19° SSW
Cosmos 1833 Rocket 3.2 03:13:09 10° NW 03:18:23 40° WSW 03:22:09 18° SSW
Cosmos 1461 4.1 03:16:25 14° WSW 03:19:21 33° NW 03:23:02 10° NNE
BREEZE-M R/B 3.6 03:14:48 10° WNW 03:23:01 90° NNE 03:26:52 10° ESE
Cosmos 2369 Rocket 3.7 03:18:46 10° SSE 03:23:28 28° ESE 03:28:12 10° NE
Cosmos 1812 3.1 03:20:54 10° N 03:24:45 65° E 03:28:34 10° SSE
UNK 3.8 03:21:15 10° SSE 03:25:55 88° E 03:30:38 10° NNW
Cosmos 1975 Rocket 3.3 03:23:46 10° N 03:28:06 71° ENE 03:32:27 10° SSE
Cosmos 1655 Rocket 4.0 03:25:44 14° S 03:31:16 87° E 03:37:33 10° N
Cosmos 2298 Rocket 4.3 03:28:36 18° SW 03:32:29 60° WNW 03:37:45 10° NNE
Cosmos 1825 4.3 03:30:55 11° WSW 03:32:56 16° WNW 03:35:20 10° NNW
Cosmos 2297 4.2 03:28:48 16° SW 03:33:12 51° WNW 03:38:44 10° NNE
CZ-3B DEB 4.1 03:20:23 10° WNW 03:33:21 66° SW 03:44:30 10° SSE
Abrixas 2.5 03:31:49 10° W 03:34:33 69° N 03:37:17 10° E
USA 161 4.4 03:33:39 10° E 03:34:50 13° ENE 03:36:03 10° NE
Cosmos 1733 Rocket 4.2 03:33:13 17° SW 03:35:55 31° WNW 03:39:49 10° N
SL-16 R/B 2.5 03:32:32 10° S 03:38:45 71° WSW 03:45:02 10° NNW
Cosmos 2082 Rocket 3.3 03:38:52 10° NW 03:43:18 24° WSW 03:46:32 15° SW
Cosmos 2150 Rocket 4.5 03:40:03 16° SW 03:44:21 55° WNW 03:49:43 10° NNE
USA 267 4.1 03:38:46 10° ENE 03:44:48 38° SE 03:50:31 11° SSW
Cosmos 158 Rocket 4.2 03:39:55 10° NNW 03:45:05 71° ENE 03:50:05 10° SSE
CZ-4C R/B 4.4 03:42:11 10° WNW 03:46:48 23° NNW 03:51:57 10° NNE
Meteor 1-25 Rocket 4.3 03:43:47 10° S 03:49:17 80° E 03:54:58 10° NNE
Meteor 1-14 Rocket 4.4 03:45:30 13° SSW 03:50:57 79° WNW 03:56:59 10° N
NOSS 3-2 (A) 4.2 03:46:06 11° S 03:51:38 45° ESE 03:57:52 10° NE
ADEOS Rocket 3.6 03:44:29 10° N 03:52:10 69° WNW 03:58:58 12° SSW
Cosmos 44 3.9 03:48:50 12° WSW 03:52:52 44° NW 03:57:07 10° NNE
Sich 1 Rocket 4.2 03:53:42 14° SW 03:57:21 44° WNW 04:01:46 10° N
Okean 3 4.5 03:53:56 10° NNW 03:57:38 29° W 04:00:42 13° SW
Cosmos 44 Rocket 4.4 03:58:55 10° WSW 04:03:20 34° NW 04:07:42 10° NNE
MOZ.5/SAFIR/RUBIN 5/SL-8 3.8 03:58:49 10° SSE 04:03:35 89° WSW 04:08:21 10° NNW
ADEOS 3.6 03:59:09 10° NNE 04:04:25 80° WNW 04:09:38 10° SSW
Cosmos 1048 Rocket 4.0 04:00:23 10° NNW 04:05:48 79° WSW 04:11:10 10° SSE
Cosmos 2266 Rocket 4.3 03:59:58 10° S 04:06:21 75° E 04:12:45 10° NNE
Okean 1 3.3 04:03:20 10° NNW 04:07:25 74° W 04:11:28 10° S
Cosmos 1633 2.9 04:03:53 10° S 04:07:30 66° E 04:11:07 10° NNE
S3M 4.2 04:01:32 10° NNW 04:07:36 56° W 04:13:33 10° SSW
ATLAS 3B R/B 3.1 04:02:55 11° SW 04:10:12 66° NW 04:17:17 10° NE
GRACE-1 4.2 04:10:52 10° S 04:13:33 65° E 04:16:14 10° N
GRACE-2 4.2 04:11:18 10° S 04:13:59 65° E 04:16:40 10° N
Resurs 1-4 Rocket 2.5 04:11:33 10° N 04:16:45 54° WNW 04:21:54 10° SW
MOS 1 Rocket 3.6 04:14:50 10° NNE 04:20:18 85° WNW 04:25:31 10° SSW
USA 234 3.9 04:14:48 10° ESE 04:21:13 61° NNE 04:27:40 10° NW
Cosmos 2344 3.9 04:16:20 10° SSW 04:23:56 72° SE 04:32:39 10° NE
Meteor 2-4 Rocket 4.4 04:18:17 10° N 04:23:56 59° ENE 04:29:22 10° SSE
Okean 2 Rocket 3.4 04:20:33 10° SSW 04:24:50 50° WNW 04:29:08 10° N
Cosmos 1441 Rocket 3.3 04:22:21 10° NNW 04:26:23 84° W 04:30:23 10° S
Meteor 1-13 Rocket 4.2 04:24:56 10° NNW 04:30:29 87° W 04:36:03 10° S
CZ-2D R/B 2.8 04:27:37 10° N 04:32:38 42° WNW 04:37:42 10° SW
CZ-2D R/B 3.7 04:28:20 10° N 04:32:43 75° WNW 04:37:09 10° SSW
ARIANE 5 R/B 3.2 04:31:25 10° N 04:36:04 40° WNW 04:40:42 10° SW
